CW3322 Weather Reports


time (UTC)temp
C
wind
direction
speed
KPH
gust
KPH
rain 1hr
cm
rain 24hr
cm
rain mn
cm
humidity
%
barometer
mb
20260508173046 17 0.0 0.0 0.00 0.00 0.00 59 1015.9
20260508172521 17 10 1.6 3.2 0.00 0.00 0.00 58 1015.9
20260508172026 17 20 1.6 4.8 0.00 0.00 0.00 58 1015.9
20260508171519 17 9 0.0 1.6 0.00 0.00 0.00 57 1015.9
20260508171024 18 13 1.6 4.8 0.00 0.00 0.00 56 1015.9
20260508170517 18 38 3.2 11.3 0.00 0.00 0.00 55 1015.9
20260508170022 18 23 1.6 12.9 0.00 0.00 0.00 55 1015.9
20260508165557 18 27 1.6 8.0 0.00 0.00 0.00 56 1015.9
20260508165049 18 4 0.0 1.6 0.00 0.00 0.00 56 1015.9
20260508164556 18 0.0 0.0 0.00 0.00 0.00 56 1015.9
20260508164017 18 14 0.0 4.8 0.00 0.00 0.00 56 1015.9
20260508163649 18 360 1.6 3.2 0.00 0.00 0.00 56 1015.9
20260508163057 18 5 0.0 0.0 0.00 0.00 0.00 56 1015.9
20260508162550 18 358 0.0 1.6 0.00 0.00 0.00 56 1015.9
20260508162025 18 348 0.0 0.0 0.00 0.00 0.00 56 1015.9
20260508161518 19 356 0.0 1.6 0.00 0.00 0.00 55 1015.9
20260508161023 18 356 0.0 3.2 0.00 0.00 0.00 55 1015.9
20260508160516 18 359 0.0 3.2 0.00 0.00 0.00 56 1015.9
20260508160154 18 0.0 0.0 0.00 0.00 0.00 57 1015.9
20260508155526 18 359 0.0 0.0 0.00 0.00 0.00 57 1015.9
20260508155246 18 9 0.0 1.6 0.00 0.00 0.00 56 1015.9
20260508154523 19 4 0.0 3.2 0.00 0.00 0.00 56 1015.9
20260508154016 20 14 1.6 8.0 0.00 0.00 0.00 54 1016.0
20260508153522 20 19 1.6 6.4 0.00 0.00 0.00 52 1016.0
20260508153026 20 31 1.6 8.0 0.00 0.00 0.00 50 1016.0
20260508152519 20 5 0.0 3.2 0.00 0.00 0.00 52 1016.0
20260508152024 21 16 1.6 6.4 0.00 0.00 0.00 52 1016.0
20260508151547 21 358 0.0 3.2 0.00 0.00 0.00 49 1016.0
20260508151052 21 358 1.6 3.2 0.00 0.00 0.00 49 1016.0
20260508150515 20 2 1.6 3.2 0.00 0.00 0.00 49 1016.0
20260508150020 20 355 0.0 3.2 0.00 0.00 0.00 52 1016.0
20260508145525 20 359 0.0 1.6 0.00 0.00 0.00 55 1016.0
20260508145018 20 21 1.6 8.0 0.00 0.00 0.00 53 1016.0
20260508144523 20 11 1.6 4.8 0.00 0.00 0.00 55 1016.0
20260508144015 20 30 1.6 4.8 0.00 0.00 0.00 54 1016.0
20260508143520 20 50 1.6 9.7 0.00 0.00 0.00 53 1016.0
20260508143025 20 22 0.0 11.3 0.00 0.00 0.00 54 1016.0
20260508142518 20 359 0.0 1.6 0.00 0.00 0.00 53 1016.0
20260508142053 20 358 0.0 3.2 0.00 0.00 0.00 53 1016.0
20260508141516 20 14 0.0 3.2 0.00 0.00 0.00 51 1016.0
20260508141021 20 34 1.6 8.0 0.00 0.00 0.00 51 1016.1
20260508140527 20 20 1.6 3.2 0.00 0.00 0.00 51 1016.0
20260508140019 19 26 0.0 8.0 0.00 0.00 0.00 53 1016.0
20260508135537 19 26 1.6 8.0 0.00 0.00 0.00 53 1016.0
20260508135030 19 19 1.6 4.8 0.00 0.00 0.00 53 1016.9
20260508134523 20 2 1.6 3.2 0.00 0.00 0.00 51 1017.0
20260508134016 21 26 1.6 8.0 0.00 0.00 0.00 51 1017.1
20260508133520 21 30 1.6 8.0 0.00 0.00 0.00 51 1017.1
20260508133026 21 22 0.0 3.2 0.00 0.00 0.00 51 1017.1
20260508132518 20 355 1.6 3.2 0.00 0.00 0.00 52 1017.1
20260508132024 21 20 1.6 4.8 0.00 0.00 0.00 50 1017.1
20260508131516 20 18 1.6 4.8 0.00 0.00 0.00 52 1017.1
20260508131022 20 359 0.0 3.2 0.00 0.00 0.00 55 1017.0
20260508130515 19 49 1.6 8.0 0.00 0.00 0.00 55 1017.0
20260508130020 19 22 1.6 4.8 0.00 0.00 0.00 56 1017.0
20260508125526 18 8 1.6 3.2 0.00 0.00 0.00 58 1017.0
20260508125048 18 30 1.6 4.8 0.00 0.00 0.00 57 1017.0
20260508124524 18 30 1.6 4.8 0.00 0.00 0.00 55 1017.0
20260508124016 18 25 0.0 3.2 0.00 0.00 0.00 55 1017.0
20260508123522 18 273 1.6 4.8 0.00 0.00 0.00 57 1017.0
20260508123027 18 317 1.6 4.8 0.00 0.00 0.00 55 1017.0
20260508122620 18 18 1.6 6.4 0.00 0.00 0.00 55 1017.0
20260508122025 18 12 1.6 8.0 0.00 0.00 0.00 56 1017.0
20260508121618 18 37 1.6 8.0 0.00 0.00 0.00 55 1017.0
20260508121023 18 337 0.0 0.0 0.00 0.00 0.00 54 1017.0
20260508120516 18 4 1.6 3.2 0.00 0.00 0.00 55 1017.0
20260508120022 18 42 1.6 8.0 0.00 0.00 0.00 55 1017.0
20260508115526 18 37 1.6 12.9 0.00 0.00 0.00 54 1017.0
20260508115049 18 53 1.6 11.3 0.00 0.00 0.00 55 1017.0
20260508114524 18 5 0.0 9.7 0.00 0.00 0.00 56 1017.0
20260508114016 18 9 1.6 12.9 0.00 0.00 0.00 57 1017.0
20260508113521 18 7 0.0 3.2 0.00 0.00 0.00 57 1017.0
20260508113026 18 34 1.6 8.0 0.00 0.00 0.00 55 1017.0
20260508112518 18 10 1.6 3.2 0.00 0.00 0.00 57 1017.0
20260508112053 18 13 1.6 8.0 0.00 0.00 0.00 54 1017.0
20260508111515 18 18 1.6 8.0 0.00 0.00 0.00 54 1017.0
20260508111020 18 31 3.2 8.0 0.00 0.00 0.00 55 1017.0
20260508110625 18 56 3.2 11.3 0.00 0.00 0.00 55 1017.0
20260508110018 18 27 3.2 8.0 0.00 0.00 0.00 55 1017.0
20260508105522 18 23 3.2 12.9 0.00 0.00 0.00 56 1017.0
20260508105027 18 34 1.6 8.0 0.00 0.00 0.00 55 1017.0
20260508104524 18 51 3.2 11.3 0.00 0.00 0.00 56 1017.0
20260508104017 18 35 3.2 12.9 0.00 0.00 0.00 57 1017.0
20260508103521 17 50 3.2 9.7 0.00 0.00 0.00 57 1017.0
20260508103040 17 45 3.2 9.7 0.00 0.00 0.00 56 1017.0
20260508102532 17 49 3.2 12.9 0.00 0.00 0.00 56 1017.0
20260508102025 17 30 3.2 9.7 0.00 0.00 0.00 57 1017.6
20260508101516 17 28 1.6 16.1 0.00 0.00 0.00 58 1018.0
20260508101020 17 24 3.2 9.7 0.00 0.00 0.00 57 1018.1
20260508100625 17 22 3.2 12.9 0.00 0.00 0.00 57 1018.1
20260508100017 17 31 1.6 9.7 0.00 0.00 0.00 58 1018.0
20260508095522 17 40 3.2 11.3 0.00 0.00 0.00 58 1018.0
20260508095026 17 50 3.2 8.0 0.00 0.00 0.00 58 1018.0
20260508094518 17 10 1.6 4.8 0.00 0.00 0.00 62 1018.0
20260508094022 17 5 3.2 9.7 0.00 0.00 0.00 61 1018.1
20260508093526 17 13 1.6 8.0 0.00 0.00 0.00 62 1018.1
20260508093017 16 3 1.6 4.8 0.00 0.00 0.00 63 1018.0
20260508092522 16 29 3.2 8.0 0.00 0.00 0.00 63 1018.0
20260508092026 16 46 1.6 8.0 0.00 0.00 0.00 63 1018.0
20260508091517 16 43 3.2 6.4 0.00 0.00 0.00 64 1018.0
20260508091021 17 35 1.6 12.9 0.00 0.00 0.00 65 1018.1
20260508090526 16 16 1.6 4.8 0.00 0.00 0.00 67 1018.0
20260508090018 15 13 1.6 8.0 0.00 0.00 0.00 69 1018.0
20260508085522 15 33 3.2 11.3 0.00 0.00 0.00 68 1018.0
20260508085026 15 34 1.6 8.0 0.00 0.00 0.00 69 1018.0
20260508084519 15 27 3.2 9.7 0.00 0.00 0.00 70 1018.0
20260508084052 15 30 1.6 8.0 0.00 0.00 0.00 71 1018.0
20260508083527 15 48 1.6 9.7 0.00 0.00 0.00 71 1018.0
20260508083018 15 14 1.6 3.2 0.00 0.00 0.00 72 1018.0
20260508082523 15 50 1.6 9.7 0.00 0.00 0.00 72 1018.0
20260508082027 15 23 1.6 8.0 0.00 0.00 0.00 72 1018.0
20260508081549 15 40 0.0 3.2 0.00 0.00 0.00 73 1018.0
20260508081123 15 15 0.0 3.2 0.00 0.00 0.00 74 1018.0
20260508080515 14 351 0.0 3.2 0.00 0.00 0.00 76 1018.0
20260508080020 14 24 0.0 4.8 0.00 0.00 0.00 76 1018.0
20260508075524 14 29 0.0 3.2 0.00 0.00 0.00 76 1018.0
20260508075016 13 27 0.0 4.8 0.00 0.00 0.00 77 1018.0
20260508074520 13 20 0.0 4.8 0.00 0.00 0.00 79 1018.0
20260508074024 13 43 0.0 3.2 0.00 0.00 0.00 78 1018.0
20260508073515 13 12 0.0 3.2 0.00 0.00 0.00 79 1018.0
20260508073019 13 0.0 0.0 0.00 0.00 0.00 79 1018.0
20260508072523 12 0.0 0.0 0.00 0.00 0.00 80 1018.0
20260508072016 12 0.0 0.0 0.00 0.00 0.00 81 1018.0
20260508071533 12 0.0 0.0 0.00 0.00 0.00 83 1018.0
20260508071025 12 0.0 0.0 0.00 0.00 0.00 82 1018.1
20260508070517 12 0.0 0.0 0.00 0.00 0.00 82 1018.1
20260508070050 12 25 1.6 3.2 0.00 0.00 0.00 83 1018.1
20260508065524 12 38 1.6 3.2 0.00 0.00 0.00 83 1018.1
20260508065116 12 43 1.6 4.8 0.00 0.00 0.00 84 1018.1
20260508064521 12 0.0 0.0 0.00 0.00 0.00 84 1018.1
20260508064024 12 0.0 0.0 0.00 0.00 0.00 84 1018.1
20260508063516 12 360 0.0 3.2 0.00 0.00 0.00 85 1018.1
20260508063051 12 4 0.0 3.2 0.00 0.00 0.00 85 1018.1
20260508062524 11 0.0 0.0 0.00 0.00 0.00 88 1018.1
20260508062016 11 0.0 0.0 0.00 0.00 0.00 88 1018.0
20260508061551 10 22 0.0 3.2 0.00 0.00 0.00 90 1018.0
20260508061025 10 0.0 0.0 0.00 0.00 0.00 94 1018.0
20260508060517 10 0.0 0.0 0.00 0.00 0.00 96 1018.0
20260508060021 9 1 0.0 1.6 0.00 0.00 0.00 97 1017.7
20260508055556 8 11 0.0 3.2 0.00 0.00 0.00 99 1017.0
20260508055118 8 358 0.0 1.6 0.00 0.00 0.00 99 1016.9
20260508054622 7 18 0.0 3.2 0.00 0.00 0.00 99 1017.1
20260508054056 6 0.0 0.0 0.00 0.00 0.00 99 1017.9
20260508053517 6 0.0 0.0 0.00 0.00 0.00 99 1017.8
20260508053022 5 0.0 0.0 0.00 0.00 0.00 99 1017.8
20260508052526 5 0.0 0.0 0.00 0.00 0.00 99 1017.8
20260508052018 5 0.0 0.0 0.00 0.00 0.00 99 1017.7
20260508051522 4 0.0 0.0 0.00 0.00 0.00 99 1017.7
20260508051056 3 0.0 0.0 0.00 0.00 0.00 99 1017.7
20260508050519 3 0.0 0.0 0.00 0.00 0.00 99 1017.7
20260508050022 3 0.0 0.0 0.00 0.00 0.00 99 1017.7
20260508045526 3 0.0 0.0 0.00 0.00 0.00 99 1017.7
20260508045018 3 0.0 0.0 0.00 0.00 0.00 99 1017.7
20260508044523 3 0.0 0.0 0.00 0.00 0.00 99 1017.7
20260508044027 3 0.0 0.0 0.00 0.00 0.00 99 1017.7
20260508043519 3 0.0 0.0 0.00 0.00 0.00 99 1017.7
20260508043023 3 0.0 0.0 0.00 0.00 0.00 99 1017.7
20260508042515 3 0.0 0.0 0.00 0.00 0.00 99 1016.9
20260508042020 3 0.0 0.0 0.00 0.00 0.00 99 1016.7
20260508041524 3 0.0 0.0 0.00 0.00 0.00 99 1016.7
20260508041016 3 0.0 0.0 0.00 0.00 0.00 99 1016.7
20260508040533 3 0.0 0.0 0.00 0.00 0.00 99 1016.7
20260508040025 3 0.0 0.0 0.00 0.00 0.00 99 1016.7
20260508035517 3 0.0 0.0 0.00 0.00 0.00 99 1016.7
20260508035020 3 0.0 0.0 0.00 0.00 0.00 99 1016.7
20260508034555 3 0.0 0.0 0.00 0.00 0.00 99 1016.7
20260508034016 3 0.0 0.0 0.00 0.00 0.00 99 1016.7
20260508033520 3 0.0 0.0 0.00 0.00 0.00 99 1016.7
20260508033024 3 0.0 0.0 0.00 0.00 0.00 99 1016.7
20260508032517 3 0.0 0.0 0.00 0.00 0.00 99 1016.7
20260508032021 3 0.0 0.0 0.00 0.00 0.00 99 1016.7
20260508031526 3 0.0 0.0 0.00 0.00 0.00 99 1016.8
20260508031017 3 0.0 0.0 0.00 0.00 0.00 99 1016.8
20260508030622 3 0.0 0.0 0.00 0.00 0.00 99 1016.8
20260508030056 3 0.0 0.0 0.00 0.00 0.00 99 1016.8
20260508025519 3 0.0 0.0 0.00 0.00 0.00 99 1016.8
20260508025023 3 0.0 0.0 0.00 0.00 0.00 99 1016.8
20260508024516 3 0.0 0.0 0.00 0.00 0.00 99 1016.8
20260508024020 3 0.0 0.0 0.00 0.00 0.00 99 1016.8
20260508023525 4 0.0 0.0 0.00 0.00 0.00 99 1016.8
20260508023017 4 0.0 0.0 0.00 0.00 0.00 99 1016.8
20260508022522 4 0.0 0.0 0.00 0.00 0.00 99 1016.8
20260508022026 4 0.0 0.0 0.00 0.00 0.00 99 1016.8
20260508021548 4 0.0 0.0 0.00 0.00 0.00 99 1016.8
20260508021023 4 0.0 0.0 0.00 0.00 0.00 99 1016.7
20260508020526 4 0.0 0.0 0.00 0.00 0.00 99 1016.7
20260508020018 4 0.0 0.0 0.00 0.00 0.00 99 1016.7
20260508015522 4 0.0 0.0 0.00 0.00 0.00 99 1016.7
20260508015056 4 0.0 0.0 0.00 0.00 0.00 99 1016.7
20260508014518 5 0.0 0.0 0.00 0.00 0.00 99 1016.8
20260508014022 5 0.0 0.0 0.00 0.00 0.00 99 1016.7
20260508013526 5 0.0 0.0 0.00 0.00 0.00 99 1016.7
20260508013048 5 0.0 0.0 0.00 0.00 0.00 99 1016.7
20260508012522 5 0.0 0.0 0.00 0.00 0.00 99 1016.7
20260508012027 5 0.0 0.0 0.00 0.00 0.00 99 1016.7
20260508011519 5 0.0 0.0 0.00 0.00 0.00 99 1016.7
20260508011053 5 0.0 0.0 0.00 0.00 0.00 99 1016.7
20260508010922 5 0.0 0.0 0.00 0.00 0.00 99 1016.7
20260508010021 5 0.0 0.0 0.00 0.00 0.00 99 1016.7
20260508005525 4 0.0 0.0 0.00 0.00 0.00 99 1016.7
20260508005017 5 0.0 0.0 0.00 0.00 0.00 99 1016.7
20260508004621 5 0.0 0.0 0.00 0.00 0.00 99 1016.7
20260508004025 5 0.0 0.0 0.00 0.00 0.00 99 1016.7
20260508003517 5 0.0 0.0 0.00 0.00 0.00 99 1016.7
20260508003022 5 0.0 0.0 0.00 0.00 0.00 99 1016.7
20260508002556 5 0.0 0.0 0.00 0.00 0.00 99 1016.7
20260508002017 5 0.0 0.0 0.00 0.00 0.00 99 1016.7
20260508001522 5 0.0 0.0 0.00 0.00 0.00 99 1016.7
20260508001026 5 0.0 0.0 0.00 0.00 0.00 99 1016.7
20260508000517 5 0.0 0.0 0.00 0.00 0.00 99 1017.1
20260508000021 5 0.0 0.0 0.00 0.00 0.00 99 1017.7
20260507235525 5 0.0 0.0 0.00 0.00 0.00 99 1017.7
20260507235016 5 0.0 0.0 0.00 0.00 0.00 99 1017.7
20260507234520 6 0.0 0.0 0.00 0.00 0.00 99 1017.7
20260507234024 6 0.0 0.0 0.00 0.00 0.00 99 1017.7
20260507233545 6 0.0 0.0 0.00 0.00 0.00 99 1017.7
20260507233020 6 0.0 0.0 0.00 0.00 0.00 99 1017.7
20260507232553 6 0.0 0.0 0.00 0.00 0.00 99 1017.7
20260507232027 6 0.0 0.0 0.00 0.00 0.00 99 1017.5
20260507231519 6 0.0 0.0 0.00 0.00 0.00 99 1016.7
20260507231023 6 0.0 0.0 0.00 0.00 0.00 99 1016.7
20260507230515 6 0.0 0.0 0.00 0.00 0.00 99 1016.7
20260507230020 6 0.0 0.0 0.00 0.00 0.00 99 1016.7
20260507225523 6 0.0 0.0 0.00 0.00 0.00 99 1016.7
20260507225016 6 0.0 0.0 0.00 0.00 0.00 99 1016.7
20260507224527 6 0.0 0.0 0.00 0.00 0.00 99 1016.7
20260507224018 6 0.0 0.0 0.00 0.00 0.00 99 1016.7
20260507223523 6 0.0 0.0 0.00 0.00 0.00 99 1017.4
20260507223026 6 0.0 0.0 0.00 0.00 0.00 99 1017.8
20260507222518 6 0.0 0.0 0.00 0.00 0.00 99 1017.8
20260507222022 6 0.0 0.0 0.00 0.00 0.00 99 1017.2
20260507221527 7 0.0 0.0 0.00 0.00 0.00 99 1016.7
20260507221018 7 0.0 0.0 0.00 0.00 0.00 99 1016.7
20260507220536 7 0.0 0.0 0.00 0.00 0.00 99 1016.7
20260507220057 7 0.0 0.0 0.00 0.00 0.00 99 1016.7
20260507215519 7 0.0 0.0 0.00 0.00 0.00 99 1016.7
20260507215022 7 0.0 0.0 0.00 0.00 0.00 99 1016.8
20260507214556 7 0.0 0.0 0.00 0.00 0.00 99 1016.8
20260507214018 7 0.0 0.0 0.00 0.00 0.00 99 1016.8
20260507213522 7 0.0 0.0 0.00 0.00 0.00 99 1016.8
20260507213031 7 0.0 0.0 0.00 0.00 0.00 98 1016.8
20260507212037 8 0.0 0.0 0.00 0.00 0.00 97 1016.8
20260507211527 8 0.0 0.0 0.00 0.00 0.00 97 1016.8
20260507211019 8 0.0 0.0 0.00 0.00 0.00 97 1016.8
20260507210523 8 0.0 0.0 0.00 0.00 0.00 98 1016.8
20260507210015 8 0.0 0.0 0.00 0.00 0.00 98 1016.8
20260507205519 8 0.0 0.0 0.00 0.00 0.00 97 1016.8
20260507205037 8 0.0 0.0 0.00 0.00 0.00 97 1016.8
20260507204529 8 0.0 0.0 0.00 0.00 0.00 97 1016.8
20260507204020 8 0.0 0.0 0.00 0.00 0.00 97 1016.8
20260507203623 8 0.0 0.0 0.00 0.00 0.00 97 1016.8
20260507203015 8 0.0 0.0 0.00 0.00 0.00 97 1016.8
20260507202519 8 0.0 0.0 0.00 0.00 0.00 97 1016.8
20260507202024 8 0.0 0.0 0.00 0.00 0.00 97 1016.8
20260507201516 9 0.0 0.0 0.00 0.00 0.00 96 1016.8
20260507201020 9 0.0 0.0 0.00 0.00 0.00 96 1016.8
20260507200524 9 0.0 0.0 0.00 0.00 0.00 96 1016.8
20260507200016 9 0.0 0.0 0.00 0.00 0.00 95 1016.8
20260507195620 9 0.0 0.0 0.00 0.00 0.00 95 1016.8
20260507195024 10 0.0 0.0 0.00 0.00 0.00 95 1016.8
20260507194515 10 0.0 0.0 0.00 0.00 0.00 94 1016.8
20260507194019 10 0.0 0.0 0.00 0.00 0.00 93 1016.8
20260507193554 10 0.0 0.0 0.00 0.00 0.00 92 1016.8
20260507193015 10 0.0 0.0 0.00 0.00 0.00 92 1016.8
20260507192519 11 0.0 0.0 0.00 0.00 0.00 91 1016.8
20260507192023 11 0.0 0.0 0.00 0.00 0.00 89 1016.8
20260507191527 11 0.0 0.0 0.00 0.00 0.00 88 1016.9
20260507191018 11 0.0 0.0 0.00 0.00 0.00 88 1016.9
20260507190523 12 0.0 0.0 0.00 0.00 0.00 87 1016.9
20260507190015 12 0.0 0.0 0.00 0.00 0.00 84 1016.4
20260507185519 12 0.0 0.0 0.00 0.00 0.00 83 1015.9
20260507185024 12 0.0 0.0 0.00 0.00 0.00 81 1015.9
20260507184516 12 0.0 0.0 0.00 0.00 0.00 80 1015.9
20260507184020 13 0.0 0.0 0.00 0.00 0.00 80 1015.9
20260507183555 13 0.0 0.0 0.00 0.00 0.00 80 1015.9
20260507183046 13 0.0 0.0 0.00 0.00 0.00 78 1015.9
20260507182520 13 0.0 0.0 0.00 0.00 0.00 77 1015.9
20260507182054 13 0.0 0.0 0.00 0.00 0.00 77 1015.9
20260507181516 13 0.0 0.0 0.00 0.00 0.00 77 1015.9
20260507181050 13 0.0 0.0 0.00 0.00 0.00 77 1015.9
20260507180525 14 0.0 0.0 0.00 0.00 0.00 77 1015.9
20260507180016 14 0.0 0.0 0.00 0.00 0.00 76 1015.9
20260507175520 14 0.0 0.0 0.00 0.00 0.00 74 1015.9
20260507175024 14 0.0 0.0 0.00 0.00 0.00 72 1015.9
20260507174516 14 0.0 0.0 0.00 0.00 0.00 70 1015.9
20260507174034 14 0.0 0.0 0.00 0.00 0.00 70 1015.9
20260507173526 14 0.0 0.0 0.00 0.00 0.00 71 1015.9